Wind_Speed
11 10 7 5 4 1 1 4 2 2 3 3 1 1 1 2 2 4 2 0 2 1 2 2 3 4 5 6 9 7 3 2 4 4 2 4 15 23 19 16 19 20 20 19 17 16 15 14 14 14 15 16 16 15 14 14 14 14 14 14 15 16 17 17 16 17 17 17 17 16 16 16 16 17 14 12 13 14 15 16 15 15 16 17 17 16 17 19 20 20 20 21 22 22 21 21 22
10 8 5 3 3 0 1 3 3 3 4 3 1 2 1 3 3 4 4 3 3 3 1 5 8 9 8 8 8 5 3 3 3 4 0 9 20 20 17 16 20 20 19 19 17 16 15 15 14 15 15 16 15 14 13 14 14 13 13 14 15 16 16 16 16 17 17 17 17 16 16 16 16 16 14 13 14 15 18 17 16 16 17 18 17 17 18 20 21 21 21 22 24 24 22 22 22
9 6 3 2 1 2 1 4 3 1 5 2 2 2 0 3 4 5 5 5 6 5 5 6 8 6 6 6 4 4 1 4 1 3 4 15 17 16 17 17 19 19 19 19 17 16 16 16 15 16 16 15 15 14 13 13 13 13 13 14 15 15 16 16 16 17 17 17 17 16 16 16 16 16 14 13 14 16 18 18 17 17 17 17 17 17 19 20 21 21 21 22 24 24 24 22 22
7 6 4 0 1 3 3 3 2 4 4 3 2 4 1 5 6 5 4 3 3 3 4 3 5 2 5 6 2 3 2 1 2 3 6 14 15 18 20 18 20 18 19 19 17 16 16 17 17 17 16 15 14 13 13 13 13 13 13 14 14 14 15 16 16 17 17 17 17 16 16 16 16 16 14 13 14 15 17 17 17 17 17 16 17 18 19 20 21 21 20 21 23 24 24 23 23
6 6 4 2 2 1 3 3 2 5 4 4 3 4 4 5 6 5 3 3 4 1 3 4 3 1 4 4 2 3 3 3 4 5 9 14 17 22 21 20 20 18 19 18 18 17 17 17 17 17 15 14 13 12 12 13 13 12 12 13 14 13 14 15 16 16 16 17 17 16 16 16 16 16 15 15 15 16 16 15 16 17 18 16 17 18 19 20 21 20 19 20 23 23 24 23 22
6 3 2 3 2 1 2 3 4 2 4 5 4 4 6 5 6 6 3 2 2 1 3 4 4 3 3 1 1 3 3 3 5 9 13 17 21 23 22 21 20 19 19 18 19 17 17 17 17 16 14 14 13 12 12 13 13 12 12 13 13 12 13 15 16 15 16 16 16 16 16 16 16 15 15 14 15 16 15 14 16 17 17 16 16 18 19 20 20 19 19 21 22 23 23 22 21
5 2 2 4 2 2 3 3 4 2 2 5 6 6 7 6 6 6 4 2 2 3 4 3 5 7 2 1 1 1 2 3 6 12 17 22 24 23 22 21 21 20 18 19 19 17 17 16 16 16 14 14 13 13 12 13 13 12 12 12 13 12 12 14 15 15 15 16 15 16 16 16 16 15 15 14 15 16 15 14 16 16 15 14 15 18 20 20 19 18 19 21 22 22 21 20 20
4 1 1 4 2 3 4 2 1 2 1 2 4 6 9 8 7 6 5 3 1 1 3 2 5 7 1 2 2 3 1 6 9 16 21 24 24 23 22 22 22 21 19 19 19 17 16 15 15 15 15 14 13 13 12 12 13 13 12 12 12 11 12 13 14 15 15 15 15 16 16 16 16 15 16 16 16 16 15 14 14 14 13 13 15 18 19 19 18 17 19 22 22 22 21 20 20
2 1 1 3 1 3 3 2 1 1 0 2 3 3 7 8 6 5 4 2 3 3 3 5 4 5 2 4 1 5 1 10 15 21 24 25 24 22 21 22 22 21 19 19 18 17 17 15 14 15 15 14 13 14 13 13 14 13 12 12 12 11 11 12 12 13 14 15 15 16 16 15 15 15 15 15 16 15 13 12 13 14 13 13 16 18 19 19 17 17 20 21 22 21 20 19 19
3 2 1 2 2 4 3 1 0 1 2 3 3 5 7 7 5 4 5 4 4 4 2 3 5 5 4 3 1 3 3 14 21 25 26 26 24 22 22 21 21 21 20 19 19 18 17 16 14 14 14 14 14 14 13 13 14 13 12 12 11 10 10 11 11 12 13 14 14 16 16 15 15 14 14 14 15 14 13 13 13 13 13 14 17 18 19 18 17 18 20 20 20 20 19 17 16
2 3 2 3 3 3 2 3 2 1 1 1 2 4 6 6 5 3 5 4 2 4 3 1 5 5 5 2 2 2 7 17 26 28 28 27 25 23 22 21 20 19 20 20 20 19 18 17 15 14 14 14 14 14 14 13 14 14 12 12 11 10 10 10 11 11 12 13 14 16 17 16 14 13 14 15 14 13 13 14 14 14 14 14 16 17 18 17 17 19 19 18 18 18 17 16 16
2 3 4 4 2 3 4 4 3 1 2 0 2 5 4 6 6 4 5 5 2 4 4 2 5 5 5 1 3 2 8 17 26 30 29 27 25 23 21 20 20 18 19 20 20 20 19 18 16 16 16 15 15 15 14 14 15 14 13 12 12 10 10 10 11 11 11 12 13 15 17 16 14 13 13 13 13 13 13 13 14 14 14 15 15 16 18 17 17 19 19 18 17 17 17 16 16
3 1 5 2 2 4 4 5 3 1 3 3 4 3 4 6 6 8 7 5 4 4 3 5 7 6 4 1 1 2 8 17 25 30 30 26 23 22 21 20 19 18 18 19 21 21 20 19 18 17 17 16 15 15 15 15 16 15 14 13 12 11 10 10 10 11 11 11 12 13 15 16 15 14 14 13 12 12 13 14 14 13 13 14 15 16 17 16 18 19 18 17 17 16 17 17 17
2 3 5 2 0 4 5 4 3 3 2 6 3 2 3 3 5 7 7 6 4 5 2 3 7 6 3 1 1 2 10 19 24 28 29 22 19 20 22 22 20 19 17 19 21 21 21 20 19 18 18 17 16 16 15 16 16 15 15 14 14 12 11 11 10 11 10 10 11 12 13 14 14 14 15 14 13 13 14 14 13 13 14 14 14 15 15 16 18 18 17 17 16 16 17 18 17
2 1 5 3 2 2 4 2 4 5 3 5 3 2 3 2 4 5 6 7 5 4 1 1 4 2 3 6 4 8 17 24 25 27 27 20 16 20 23 23 21 20 18 19 21 21 22 21 20 20 19 18 17 17 16 17 17 16 15 15 14 13 12 11 10 11 11 10 9 10 11 11 12 12 13 15 15 16 16 15 14 14 14 14 14 14 14 15 18 16 16 16 16 16 17 17 17
2 3 5 3 1 0 3 2 5 4 4 5 2 3 5 2 3 4 4 6 3 2 2 1 1 1 7 8 6 18 27 26 26 27 26 19 16 21 24 24 23 21 19 20 22 22 22 21 21 21 20 19 18 17 17 18 18 16 15 15 15 14 13 11 11 12 11 10 9 10 10 10 10 10 12 14 15 16 17 17 16 15 15 14 15 14 14 17 17 16 15 15 15 15 15 16 16
3 4 4 2 1 1 2 4 5 4 4 4 4 3 6 1 1 1 1 5 5 2 4 1 4 4 4 4 6 25 31 27 28 26 24 19 17 22 23 23 24 22 21 21 22 23 23 22 22 22 21 20 19 18 17 18 18 17 16 15 15 14 13 12 12 12 12 11 10 10 10 11 11 11 11 13 14 14 15 16 16 15 15 15 16 17 17 19 18 16 16 15 14 14 15 15 15
4 3 3 1 2 1 3 6 6 4 5 6 5 5 8 4 2 0 2 6 4 4 6 4 5 7 3 1 14 29 31 28 29 26 24 20 18 22 23 24 25 24 24 23 23 24 24 24 23 23 22 21 20 19 18 18 19 18 17 17 16 15 14 14 13 13 12 11 11 11 11 12 12 12 12 13 13 13 14 14 14 14 15 15 16 17 18 20 20 19 18 17 16 15 15 15 14
3 3 3 3 5 2 3 5 5 3 5 8 5 5 6 6 5 2 2 1 2 5 4 5 5 6 6 8 21 29 29 29 29 27 25 22 21 22 23 23 24 25 26 25 25 25 25 26 24 24 23 22 21 20 19 19 20 20 19 18 17 16 16 15 14 14 13 12 12 12 12 12 12 12 13 13 13 13 13 13 13 13 14 14 15 17 18 20 20 20 19 18 17 16 16 16 15
2 4 3 4 6 3 2 3 3 4 5 9 5 4 3 3 4 2 4 5 3 4 3 1 0 2 3 7 18 26 26 26 27 27 24 23 23 23 25 26 26 28 29 28 27 25 26 27 26 25 24 23 23 22 21 20 21 21 20 20 19 18 17 16 15 15 14 12 13 13 12 13 13 13 13 13 13 14 14 14 13 14 14 14 15 17 18 19 19 20 20 18 18 17 17 16 17
2 4 3 5 3 2 1 1 1 3 4 8 6 5 2 3 3 2 6 6 3 6 7 7 8 9 9 7 14 21 22 22 24 24 23 23 23 23 26 28 29 30 30 29 27 27 26 27 27 26 25 25 24 24 23 22 22 22 22 21 20 19 19 18 17 16 15 14 14 14 13 14 14 13 13 13 13 14 15 15 15 15 15 16 16 17 17 18 18 20 20 18 17 16 16 15 15
3 1 4 4 4 2 2 2 2 1 5 6 7 6 4 3 2 3 9 7 5 7 8 10 10 14 14 13 15 17 18 20 21 22 23 23 24 24 25 25 25 26 29 30 30 28 27 27 28 27 27 26 26 25 24 24 24 24 24 23 22 21 20 20 19 18 17 16 16 16 15 15 15 14 14 14 14 15 15 15 16 16 16 16 17 17 17 17 18 19 20 18 16 15 14 13 13
3 2 3 1 2 3 1 1 3 2 7 6 6 4 3 4 1 3 8 7 7 7 8 9 10 16 19 17 16 15 15 17 20 24 26 26 27 27 27 27 26 28 30 31 31 29 28 27 28 28 28 28 28 27 26 25 25 26 25 25 24 23 23 22 22 21 19 19 18 18 17 17 17 16 15 15 15 16 16 16 16 16 16 17 17 17 17 17 17 18 19 18 16 14 13 13 11
5 2 2 2 1 3 1 1 3 4 7 4 4 3 4 6 3 1 5 8 8 7 2 5 11 17 18 15 14 15 17 20 24 29 31 31 33 33 32 30 29 30 31 31 31 31 30 29 29 29 29 29 29 28 27 27 27 27 26 26 26 25 25 24 24 22 22 21 20 20 19 18 18 17 16 17 17 17 17 17 17 17 17 18 18 18 18 18 18 17 17 17 17 15 14 13 12
4 3 3 1 1 1 2 3 5 4 3 1 4 4 3 6 3 1 6 10 8 5 3 6 12 14 13 13 13 13 15 19 23 26 28 30 31 30 29 29 28 29 31 33 32 32 32 31 30 30 30 30 29 29 29 28 28 28 28 28 28 27 27 26 25 24 24 23 22 22 21 20 20 19 18 18 18 18 19 18 18 19 19 19 20 20 19 18 19 18 17 16 16 16 16 14 13
2 5 4 3 1 2 2 3 3 2 1 2 4 0 4 3 1 2 9 9 5 2 6 6 11 12 11 12 13 13 12 17 21 23 27 28 26 25 26 28 28 31 34 34 34 34 34 33 32 32 32 31 31 31 31 30 30 30 30 30 30 29 29 27 26 25 26 26 25 24 23 22 21 21 19 19 19 20 20 20 20 20 20 21 21 21 20 19 19 18 17 17 16 17 17 16 15
3 6 5 4 1 2 1 1 1 2 2 1 4 2 5 3 2 4 9 5 5 6 5 5 9 11 12 11 12 15 15 19 24 23 22 22 23 26 28 29 31 33 34 35 36 36 35 35 35 34 33 32 32 32 33 32 32 32 32 31 31 30 29 29 27 27 27 28 27 26 25 23 23 22 21 20 20 21 21 22 22 22 22 22 22 22 21 19 19 18 17 16 16 17 17 17 16
5 7 5 6 5 2 2 2 1 1 1 1 5 1 5 4 1 6 7 2 6 8 7 6 7 9 10 10 10 12 15 21 23 20 20 23 28 31 32 34 36 35 35 38 39 37 37 37 37 36 35 34 34 33 34 34 34 34 33 32 32 31 30 29 29 28 29 29 29 28 27 25 25 24 23 22 21 22 23 23 24 24 24 24 24 22 21 20 18 17 16 16 16 17 17 17 17
5 6 5 6 8 3 2 1 1 1 1 2 4 2 5 2 6 7 3 2 4 7 7 7 7 7 8 9 8 8 13 17 18 20 25 31 34 35 36 40 40 38 39 40 38 38 38 38 38 37 36 36 35 35 35 35 35 35 34 33 33 32 31 31 31 30 30 30 31 31 30 28 27 26 25 23 22 23 24 24 25 25 25 25 25 23 21 20 18 18 18 17 18 18 18 18 18
3 4 5 2 7 4 5 1 1 1 1 1 3 1 6 7 11 9 5 2 3 5 7 7 7 6 6 7 7 8 12 14 17 25 31 32 33 34 37 40 40 40 40 38 37 39 39 39 38 38 38 38 37 36 36 36 36 35 35 34 34 34 32 32 32 31 30 31 32 33 32 31 30 28 27 25 24 24 25 26 26 26 26 26 26 24 22 21 20 19 19 19 19 19 19 19 19
2 2 3 2 2 3 7 2 3 3 1 3 6 2 6 9 11 9 8 4 6 7 8 7 6 6 5 6 7 8 10 16 22 28 32 33 33 33 36 38 37 39 38 37 39 40 39 39 39 39 39 40 39 38 38 37 37 36 35 34 34 34 33 33 33 32 32 32 33 34 34 34 32 31 30 28 27 26 26 27 27 27 27 27 27 25 23 22 21 20 21 22 21 21 20 20 20
3 2 2 3 2 4 8 2 5 5 1 4 6 2 6 8 10 8 6 1 7 8 7 7 7 7 7 6 7 8 9 16 23 27 30 33 34 34 36 37 36 37 38 39 40 39 39 40 40 40 40 40 41 40 39 38 38 37 36 35 34 34 33 34 34 34 33 32 33 34 36 36 34 34 33 32 31 29 28 29 29 28 28 29 28 26 25 23 22 22 23 24 23 23 22 21 21
3 3 2 2 2 2 4 2 1 2 1 2 2 3 4 4 6 8 6 3 4 5 7 7 7 8 8 7 8 8 9 11 16 23 30 32 34 36 37 37 37 38 39 39 38 38 39 40 40 40 40 41 41 41 40 39 38 38 37 35 34 34 33 34 34 34 34 34 34 34 36 36 36 35 34 34 33 33 31 30 31 31 31 31 30 29 27 26 25 25 25 25 25 25 25 23 22
3 2 1 3 3 2 2 2 3 3 2 1 0 3 6 6 7 9 7 3 2 5 7 8 7 8 8 7 8 8 9 9 11 20 31 34 36 37 37 37 37 37 38 39 38 38 39 39 40 40 40 40 40 41 41 39 38 38 37 36 35 34 34 34 34 34 35 35 35 35 36 36 37 36 35 35 35 35 33 31 33 33 33 33 33 32 30 29 27 27 28 27 26 26 26 25 24
4 2 2 2 2 3 3 3 2 2 1 2 1 3 9 11 10 10 9 3 3 8 8 8 8 8 8 8 8 8 9 10 13 22 31 34 36 37 37 36 36 35 37 38 38 38 37 38 39 39 40 39 39 40 40 39 37 37 37 36 36 36 36 35 35 35 36 35 35 35 35 35 37 37 36 36 36 36 35 34 35 36 36 36 35 34 33 31 30 29 30 29 27 26 26 26 25
8 5 5 4 2 3 4 4 4 1 1 4 5 5 8 10 10 10 11 5 5 8 8 8 9 8 8 8 8 9 9 12 16 22 26 29 33 36 36 36 35 35 35 36 36 36 36 37 38 38 39 39 38 38 38 38 36 36 36 36 37 39 38 38 37 37 37 37 37 36 36 35 36 37 36 36 37 37 36 36 36 37 38 38 37 36 35 34 33 32 32 32 30 26 25 26 26
7 5 5 3 3 2 3 3 4 1 3 5 5 5 8 9 11 12 10 6 5 9 9 10 10 9 9 9 10 11 11 12 13 16 20 24 28 32 32 32 32 32 32 34 35 36 37 37 38 39 39 38 38 38 39 39 38 37 37 38 41 41 40 39 39 39 38 38 37 36 36 36 36 38 38 38 38 38 37 37 37 38 39 39 40 39 38 36 35 35 34 33 32 30 28 27 28
5 6 5 2 2 2 3 2 4 1 2 4 3 4 10 10 11 11 9 7 8 10 10 11 12 11 9 10 12 12 10 10 9 11 15 19 24 27 29 29 30 31 32 34 35 37 38 37 38 38 38 38 39 40 40 41 41 40 39 40 40 39 39 40 40 40 38 37 36 36 36 36 36 37 37 37 38 37 37 38 38 39 39 39 40 39 39 38 37 37 37 34 32 32 31 31 32
5 4 5 2 1 2 3 4 5 3 1 4 5 6 11 10 10 12 11 9 9 9 10 11 11 10 10 11 12 11 10 10 9 9 12 17 22 24 26 27 30 33 33 34 35 36 35 36 37 38 37 38 39 40 40 41 42 41 38 37 36 35 36 39 40 39 38 37 36 36 36 36 37 37 36 36 38 38 38 39 39 38 39 40 40 39 39 39 39 39 39 38 34 31 29 32 36
4 4 4 2 2 1 2 4 4 3 2 2 4 6 10 8 6 10 10 8 8 7 8 10 9 10 12 11 9 10 11 12 11 9 10 13 17 19 22 27 31 32 32 32 33 34 35 36 38 38 38 39 39 39 40 40 39 37 35 33 31 31 32 34 35 36 37 38 38 38 37 38 37 37 37 37 38 39 39 40 40 38 38 39 41 42 41 41 41 40 39 39 37 33 28 31 37
1 3 5 3 3 3 3 2 2 3 4 3 4 6 7 5 5 7 7 4 6 5 5 8 8 9 11 10 10 10 11 10 10 10 9 9 14 18 23 27 28 30 31 33 34 35 36 37 38 38 38 38 38 39 39 38 36 34 33 30 27 26 27 28 30 34 36 37 39 40 40 39 38 38 38 38 39 39 38 39 39 39 40 41 43 44 44 43 43 43 43 41 40 38 33 33 37
3 2 5 6 6 6 2 2 4 4 4 4 5 4 6 5 4 7 6 6 7 5 5 8 8 7 8 9 11 10 9 9 8 10 8 7 13 18 20 22 25 28 33 34 35 35 36 36 37 37 37 37 37 37 37 37 37 35 33 31 29 27 27 29 33 36 37 38 39 39 39 39 39 39 38 39 39 39 39 40 40 40 41 43 46 46 46 45 43 44 45 44 43 41 37 34 37
1 4 5 6 7 7 4 2 4 2 3 3 4 4 5 7 5 8 6 7 9 8 6 9 9 8 7 7 8 7 7 8 7 8 8 8 12 15 17 22 26 29 32 32 32 32 33 33 34 35 36 36 36 36 36 36 36 36 35 35 34 32 32 35 38 37 35 36 37 37 37 38 39 39 39 39 39 39 39 39 40 40 40 42 44 44 44 44 44 45 46 45 44 42 40 36 37
3 3 6 7 7 7 5 4 3 2 3 4 4 4 2 6 5 7 5 6 10 10 9 11 9 8 8 7 7 7 7 7 6 7 8 8 11 14 17 22 26 28 28 27 28 30 31 31 32 33 34 35 35 35 35 36 36 37 37 36 36 36 37 38 37 34 34 34 34 36 37 38 39 40 40 40 40 40 39 39 39 40 40 42 43 44 43 42 43 45 44 45 45 44 44 42 39
4 4 7 6 6 6 5 6 3 1 2 4 5 2 2 6 7 5 5 5 8 9 10 11 9 8 9 8 7 7 7 6 6 7 7 8 11 14 16 18 21 23 23 24 26 28 28 29 29 30 32 33 34 34 34 35 36 37 37 37 37 38 39 38 35 33 33 33 34 36 37 38 39 39 40 41 40 40 40 40 40 40 40 40 43 45 45 44 45 47 46 46 46 45 45 43 39
3 5 7 5 6 6 5 5 3 3 2 5 6 2 2 5 7 4 3 3 6 8 8 8 8 7 7 7 6 6 6 5 3 4 6 8 10 12 13 14 16 19 20 21 23 24 25 26 27 28 30 31 32 32 33 34 35 36 37 38 39 39 38 37 34 33 33 33 34 36 36 38 38 39 40 41 41 41 40 40 41 42 42 41 43 45 45 43 44 46 47 47 48 46 45 44 41
6 6 7 6 6 5 4 3 4 3 3 6 7 3 2 4 7 4 3 4 4 3 5 7 7 7 7 7 6 6 6 5 5 5 5 6 6 7 9 11 13 14 17 19 20 22 23 24 26 28 29 29 30 31 32 33 34 36 38 39 39 39 38 36 35 34 34 33 35 36 36 37 38 38 39 40 41 40 40 40 41 41 42 42 44 45 45 45 45 45 45 46 48 47 45 45 44
6 5 5 4 4 5 4 4 4 1 5 6 5 2 3 4 6 4 5 7 4 3 3 7 8 7 7 6 5 5 5 5 5 6 6 6 5 3 4 8 10 10 13 16 18 19 21 22 24 26 28 28 29 30 31 32 34 36 38 39 39 39 38 37 37 37 36 36 36 36 35 36 36 37 37 38 40 39 38 39 40 41 40 41 43 45 45 46 46 46 45 47 49 47 45 44 43
6 5 6 4 2 3 3 3 1 3 6 4 3 1 3 6 8 8 11 10 5 6 6 5 5 6 7 6 6 5 5 5 5 5 5 5 6 5 4 5 6 8 10 12 14 16 19 21 23 25 27 28 28 29 30 32 34 36 38 39 39 39 38 38 39 39 38 37 37 36 35 35 36 37 37 38 39 38 38 39 39 40 40 39 39 42 44 44 44 42 41 43 46 45 45 44 45
4 5 5 4 3 1 3 4 2 4 5 3 3 2 3 4 4 8 13 10 4 6 7 6 4 5 6 6 6 6 6 5 4 5 5 5 6 8 8 7 7 8 10 12 14 16 18 20 22 24 26 27 27 29 30 32 34 36 37 38 38 38 38 39 39 39 38 37 37 37 37 37 37 38 39 39 38 37 38 39 38 39 41 39 36 37 40 42 43 43 41 41 44 45 45 46 47
4 4 6 5 5 5 4 4 3 4 3 3 3 2 3 2 2 5 9 8 4 4 6 6 5 5 4 5 6 6 6 6 5 5 5 6 8 10 10 10 11 12 12 13 15 16 18 20 22 24 26 27 27 29 31 33 35 35 36 37 38 38 39 39 39 39 38 38 37 37 38 38 38 39 38 37 37 36 36 37 36 37 40 41 38 36 37 39 42 44 43 43 45 44 43 45 47
2 3 5 3 5 5 2 3 5 3 1 3 2 3 4 3 6 8 5 6 5 3 4 5 5 6 5 6 6 5 6 6 5 5 5 7 9 11 12 14 15 15 16 17 17 18 19 21 22 24 26 27 28 29 31 33 34 35 35 37 37 38 38 39 39 39 39 38 38 38 39 38 38 38 37 36 35 35 35 35 35 35 35 37 40 39 37 36 38 39 40 40 43 44 44 45 45
2 2 3 5 4 7 4 2 1 3 2 4 2 4 5 3 7 9 4 5 6 3 4 5 5 6 4 4 6 5 6 6 5 5 6 7 9 11 13 15 16 17 18 20 21 20 21 22 23 24 26 27 28 29 31 33 33 34 36 36 37 38 39 40 40 40 39 38 38 38 38 38 38 37 36 35 34 34 34 33 34 33 31 33 38 41 40 39 38 38 39 40 41 42 43 44 44
5 3 6 3 2 4 4 1 3 3 2 5 2 4 5 2 4 7 6 4 6 4 5 3 3 3 2 4 5 6 6 5 6 6 6 8 10 12 13 15 16 17 19 21 22 22 22 23 24 25 27 28 29 29 31 33 33 35 36 37 37 38 39 40 40 40 38 38 38 39 38 38 38 37 35 34 33 33 33 33 33 33 31 30 33 38 40 41 40 40 41 44 44 43 43 43 43
5 4 4 4 2 1 1 2 1 1 2 5 4 4 5 4 5 5 3 4 6 3 5 4 3 3 2 4 6 7 6 5 5 5 6 7 9 12 13 14 15 15 18 20 21 22 23 24 25 26 27 28 28 29 31 32 33 34 36 36 37 38 39 39 40 39 38 38 39 39 38 38 37 35 34 33 32 32 32 32 32 33 32 29 29 33 37 39 38 38 38 39 40 41 42 41 42
3 2 2 3 2 4 3 3 3 3 3 3 4 4 4 6 6 6 7 9 6 2 7 5 2 1 1 3 5 6 5 5 5 5 5 6 8 10 10 11 13 13 15 17 18 20 22 23 23 25 26 27 28 30 31 32 33 34 35 36 37 38 39 39 39 38 38 40 40 39 38 38 36 35 34 33 32 31 31 31 31 32 32 31 29 29 34 38 38 38 39 39 40 41 41 41 41
3 3 4 2 1 2 2 1 3 4 4 3 3 5 6 5 4 8 9 8 5 6 7 6 2 2 3 3 3 4 4 5 5 5 5 7 10 12 10 9 11 12 14 15 16 18 19 20 22 23 25 26 29 30 31 32 32 32 34 37 38 38 38 38 38 38 39 41 40 40 39 37 35 35 34 33 32 31 30 30 30 31 32 33 31 28 31 36 38 39 39 39 40 40 40 40 40
6 6 7 6 4 4 3 2 1 2 3 4 3 6 8 5 4 6 6 5 5 7 7 5 3 3 4 4 4 4 4 4 4 5 5 6 9 12 13 14 14 13 14 16 16 18 19 20 22 22 24 27 29 31 31 31 31 32 34 36 37 38 38 37 37 38 40 41 41 40 38 36 36 36 34 33 32 31 30 29 30 31 31 32 32 30 30 33 36 39 39 38 38 38 38 38 38
Wind_Direction
302 309 309 288 296 294 49 71 67 321 82 90 335 88 197 222 155 119 130 23 48 305 284 31 43 81 101 117 136 134 116 152 173 151 213 218 149 155 164 167 168 161 157 155 156 151 145 146 142 135 131 131 129 121 114 109 103 96 91 87 84 81 81 87 91 92 95 97 100 103 103 103 102 101 103 106 104 106 102 92 85 80 82 87 89 89 93 95 96 98 96 98 99 97 94 95 97
307 310 310 276 297 15 213 72 94 332 55 83 312 142 223 337 68 141 177 160 160 201 163 87 74 76 92 114 129 106 44 330 182 152 139 146 142 155 167 171 170 163 160 158 158 152 146 146 144 139 136 134 128 121 118 114 107 101 96 91 88 87 85 86 90 94 97 98 101 103 104 104 103 103 104 101 96 98 97 90 84 81 85 90 90 91 96 97 98 98 98 101 103 102 99 97 98
316 316 320 248 298 63 79 44 94 75 76 123 265 257 209 70 124 189 203 173 173 161 128 99 81 82 88 74 57 83 66 320 118 105 111 144 146 164 174 175 173 165 162 162 159 153 147 146 144 142 140 137 130 126 123 118 112 107 102 96 92 90 90 90 92 97 101 102 102 103 105 104 104 104 100 96 91 91 92 90 87 85 89 94 94 94 98 99 99 100 100 103 104 103 102 99 99
326 329 326 294 51 42 57 53 128 116 119 170 210 270 235 144 164 202 223 216 213 160 140 101 65 50 94 95 74 85 144 283 124 113 139 162 162 169 175 174 173 167 164 165 161 155 149 148 146 144 143 137 131 129 127 122 117 112 107 101 96 91 92 95 95 97 101 105 105 105 106 106 106 104 99 96 94 94 93 91 90 91 94 97 98 98 99 101 101 101 100 103 105 104 105 102 101
322 330 326 56 71 52 83 82 104 103 166 179 151 253 236 179 170 190 242 270 271 178 136 101 77 331 73 110 139 113 164 151 152 151 147 169 168 168 174 170 171 169 165 166 162 156 151 150 148 147 144 137 134 134 131 125 122 116 110 104 101 96 93 96 98 98 100 104 107 108 108 108 108 105 103 100 97 97 95 94 100 103 101 97 97 100 102 103 102 101 99 103 108 106 106 103 101
318 351 31 53 69 156 97 87 99 113 209 166 145 226 217 196 177 172 190 246 308 46 107 95 121 118 63 17 54 130 172 143 157 168 154 163 168 168 170 167 170 169 166 166 164 159 154 154 153 151 146 141 140 139 133 128 126 119 112 106 105 102 96 96 100 102 102 106 108 110 110 109 110 108 108 106 101 98 98 100 105 105 101 98 98 101 104 105 104 103 101 105 110 109 108 106 106
323 3 43 49 30 40 98 124 129 157 217 164 162 176 189 207 187 153 146 145 16 9 55 96 131 108 78 328 55 32 269 206 161 168 163 161 165 166 167 167 169 168 166 165 165 163 158 158 157 156 151 147 147 143 136 130 129 123 117 110 107 104 99 98 101 106 107 110 111 113 113 110 111 111 109 110 106 103 105 104 105 105 103 102 101 104 106 106 107 105 102 104 110 113 110 110 113
333 342 55 83 41 26 102 115 145 179 65 154 172 168 180 190 177 148 154 157 120 26 60 131 128 96 16 42 106 309 310 174 162 164 163 160 163 165 167 168 168 167 167 166 166 166 162 161 160 158 156 154 152 149 143 133 132 128 122 115 113 108 102 101 103 109 112 114 116 116 116 114 114 115 114 113 111 109 109 108 108 109 107 106 105 106 108 109 110 106 105 107 111 115 113 112 115
4 24 26 84 83 33 79 65 23 189 142 146 155 182 184 180 174 146 146 153 151 144 124 176 128 108 162 52 96 291 54 151 159 160 160 161 165 165 168 171 169 167 167 169 168 168 165 164 162 159 158 158 155 153 148 138 137 136 130 125 121 113 105 103 104 110 116 119 121 121 119 118 118 119 118 116 115 113 113 113 113 112 111 110 107 107 110 112 113 110 110 111 112 115 115 114 114
34 24 97 84 81 60 62 103 42 138 181 190 191 195 180 179 173 143 130 140 151 125 159 173 90 106 139 94 182 283 135 148 153 157 162 164 165 166 170 173 172 168 169 172 171 171 168 167 164 159 158 159 160 158 153 145 144 141 137 135 129 120 111 107 106 109 116 121 124 125 122 118 119 121 119 119 120 117 116 116 118 118 116 115 111 111 113 114 118 119 117 117 116 116 116 116 116
33 344 91 78 64 101 158 174 242 232 194 262 252 217 183 170 141 118 109 129 170 122 158 79 92 120 103 115 243 237 159 151 153 157 163 166 166 169 171 173 175 172 171 173 173 173 170 169 167 161 158 160 163 162 158 152 148 145 145 144 136 129 121 115 112 110 116 121 125 129 125 120 120 125 125 126 122 119 118 115 115 116 117 117 115 115 115 116 122 124 123 124 123 121 120 120 120
71 327 67 85 119 158 176 153 190 245 327 244 191 241 185 147 124 134 133 138 182 133 178 189 144 143 83 113 262 221 171 158 158 159 161 164 168 173 175 175 175 175 174 174 174 175 174 172 170 165 161 161 164 165 164 159 154 152 152 149 143 138 130 124 119 115 117 121 126 132 131 126 124 130 134 131 123 122 121 117 117 118 121 122 119 117 116 118 122 125 127 127 125 124 124 125 124
103 164 84 93 181 135 137 134 172 75 343 234 191 229 152 141 154 168 151 131 157 135 203 205 147 118 91 213 287 238 193 168 159 160 162 162 167 174 179 178 176 178 177 177 177 176 177 175 174 170 165 165 167 168 167 164 161 157 157 155 149 146 137 131 125 120 119 122 128 135 138 136 133 133 131 129 126 126 125 122 122 123 124 123 120 119 119 125 128 127 129 128 126 125 125 127 129
136 163 104 120 74 113 142 116 142 129 251 249 230 218 138 142 169 167 138 121 193 172 181 193 140 113 99 178 295 241 204 177 161 162 166 164 167 175 181 181 178 180 180 182 182 180 179 178 178 175 170 169 169 170 170 169 166 163 164 162 157 155 148 139 134 127 123 122 126 134 142 145 144 141 136 135 132 130 128 126 125 123 123 121 121 121 122 129 133 131 131 130 129 128 127 129 131
155 132 90 107 26 82 167 134 145 144 211 231 220 167 88 68 136 145 151 144 215 229 148 121 131 134 161 166 204 209 195 180 166 164 168 165 165 175 181 180 179 181 182 185 185 185 183 181 182 179 176 173 172 172 173 174 172 170 169 168 165 164 158 151 146 138 132 128 128 132 138 144 148 149 148 149 146 142 139 135 132 129 128 127 125 121 120 130 135 135 134 133 133 134 132 132 133
116 103 72 75 16 96 178 148 130 132 214 220 228 134 92 334 127 135 208 149 162 303 27 38 2 343 165 175 211 190 184 178 169 168 169 164 161 173 179 178 180 181 183 187 188 189 186 185 185 183 181 178 177 175 175 177 177 176 174 175 174 172 168 160 155 148 144 141 140 137 136 139 142 146 150 153 153 151 150 147 146 141 138 138 134 129 127 134 138 138 137 137 139 139 138 138 137
63 80 67 60 163 230 185 160 156 160 208 229 257 156 121 297 321 141 257 93 109 29 35 359 338 11 166 235 197 171 174 174 171 171 173 168 162 170 175 177 180 180 183 189 191 192 190 190 189 186 185 183 181 179 178 179 179 181 180 181 181 180 176 169 165 159 155 154 152 150 147 144 143 145 147 151 153 154 154 153 152 148 146 144 143 144 142 140 143 145 145 145 145 145 143 143 141
56 88 99 135 196 216 174 176 190 165 164 197 215 170 136 159 235 209 42 51 73 55 26 354 360 15 12 169 149 156 165 171 174 174 176 175 167 168 174 177 180 182 185 189 194 195 193 193 192 190 188 187 186 184 183 180 181 184 186 187 186 186 182 178 175 169 167 165 163 163 159 154 151 152 153 155 156 156 157 158 155 151 151 149 148 149 148 146 149 154 155 156 155 155 153 150 147
93 111 97 209 212 197 195 187 189 177 163 176 189 167 152 175 179 136 130 135 109 89 12 355 19 17 36 115 140 151 162 168 175 176 179 182 175 172 177 180 182 185 188 190 194 196 197 196 195 194 192 190 190 189 187 184 184 187 190 192 191 189 188 187 184 180 178 175 173 172 167 164 162 160 161 161 161 161 162 164 161 157 157 154 152 151 150 151 154 160 162 164 164 165 164 160 156
155 110 92 234 219 200 213 164 190 243 178 156 171 169 165 198 171 146 164 164 161 162 184 85 54 215 129 137 147 153 163 168 175 179 183 188 184 179 179 182 185 188 192 193 192 195 199 199 198 198 196 194 194 193 191 188 188 190 194 196 196 193 191 192 191 188 186 185 182 177 175 173 171 169 168 170 169 168 168 169 168 165 163 159 156 155 155 156 158 162 166 168 169 170 170 166 163
134 102 162 219 186 145 280 148 266 278 156 149 149 136 186 229 173 169 147 141 241 237 210 193 189 182 167 170 163 160 165 170 178 185 189 192 191 188 186 188 190 191 193 193 193 195 198 201 201 200 199 199 198 198 194 193 193 194 196 198 199 197 196 196 195 193 190 192 189 182 183 180 178 176 176 178 177 176 174 174 173 171 168 164 163 163 162 162 163 165 168 170 169 172 172 169 169
76 359 208 197 143 134 274 279 319 36 107 113 128 143 188 173 142 173 151 156 228 230 216 205 181 169 171 172 170 168 170 175 181 189 194 196 196 195 192 192 192 192 192 194 196 197 198 201 203 202 201 202 202 202 199 198 198 198 199 199 200 200 201 199 197 196 193 195 193 187 187 186 184 183 183 184 184 185 181 178 177 176 174 171 169 170 167 167 169 170 171 172 169 171 171 168 169
96 287 268 245 169 149 199 305 340 108 118 124 151 169 151 122 224 190 165 195 226 222 210 202 178 169 170 163 165 171 177 182 187 192 196 197 198 199 197 194 194 193 193 197 199 200 200 201 204 203 203 204 205 206 204 202 203 204 204 203 202 202 204 203 199 197 195 197 197 193 191 189 187 186 189 189 190 191 188 184 182 181 180 177 174 175 173 172 175 176 176 176 172 172 171 169 169
98 179 290 350 117 121 156 113 46 89 124 165 163 128 138 155 201 151 195 231 240 255 245 162 163 161 159 159 172 181 183 187 192 196 197 198 200 200 199 198 198 196 195 198 201 202 202 203 204 205 205 205 206 206 207 206 206 207 208 207 206 205 206 206 204 200 198 199 201 200 196 194 192 190 193 194 194 194 193 190 186 185 184 181 179 180 179 177 180 182 180 179 177 178 176 174 174
90 159 234 16 43 346 336 68 66 63 96 120 108 118 199 190 178 153 233 243 243 261 38 104 141 147 158 170 182 186 190 195 198 200 201 204 204 202 203 202 201 200 199 200 202 204 205 205 204 206 208 207 207 208 208 208 208 208 210 211 210 208 208 209 209 204 200 201 204 205 203 201 199 197 197 197 197 197 196 194 191 189 187 185 183 183 184 182 183 185 186 184 182 182 182 180 178
171 144 170 131 52 295 357 55 57 53 26 25 110 141 297 245 239 265 243 236 222 146 85 116 137 148 174 179 185 188 194 202 202 203 205 208 208 207 208 206 206 205 206 205 204 206 207 206 206 207 208 208 208 208 209 209 209 209 211 213 213 212 211 212 212 207 204 204 206 208 209 209 207 205 202 201 201 200 199 197 195 191 189 189 187 187 187 188 188 188 189 189 187 186 185 185 184
153 118 113 93 58 297 19 76 336 31 6 4 149 233 307 322 344 265 261 240 152 127 124 154 150 165 185 185 193 193 196 204 204 204 204 208 209 212 211 208 210 210 209 209 209 210 208 207 208 209 208 208 209 209 210 211 210 211 212 214 215 215 214 214 215 212 208 207 209 210 212 214 213 212 209 205 204 204 202 200 198 194 192 192 191 191 191 193 193 192 193 193 193 192 188 187 190
124 116 85 18 3 340 41 108 235 18 45 130 129 140 315 350 334 235 267 262 153 156 161 179 176 183 190 190 198 196 205 210 205 202 201 205 208 210 211 210 211 210 211 213 214 213 211 210 210 210 210 210 210 211 211 212 212 212 213 213 214 216 216 216 219 217 213 211 212 212 213 215 216 216 214 212 209 207 207 204 200 197 196 194 193 195 194 195 196 196 197 196 196 195 192 189 191
117 106 92 346 3 6 294 128 264 25 135 205 120 23 303 264 231 239 307 15 158 168 178 194 201 202 196 196 200 203 215 213 205 208 210 209 209 209 211 213 211 210 213 215 215 214 214 213 212 211 211 212 213 213 213 214 214 214 214 213 214 216 215 217 220 220 218 215 213 213 215 216 216 217 216 216 215 212 211 207 203 201 199 196 195 197 198 198 199 199 197 197 196 195 194 191 190
122 80 97 13 14 350 289 334 21 118 158 251 114 269 275 253 248 260 313 342 138 179 206 209 213 218 210 204 206 215 218 210 207 214 216 215 214 212 213 216 214 213 215 214 215 216 216 215 213 212 212 213 214 215 215 215 216 216 216 215 214 215 215 217 219 220 221 219 216 215 215 216 217 218 218 218 218 216 213 210 207 203 200 199 197 199 202 202 203 202 199 196 194 194 195 194 193
104 75 70 55 85 277 297 324 123 145 226 65 100 203 263 273 275 279 291 251 171 200 225 219 225 233 228 221 218 227 224 214 216 219 219 219 219 217 218 219 216 215 216 214 216 218 217 216 214 213 214 215 215 215 216 216 217 218 217 216 215 216 217 217 219 220 221 222 220 218 216 217 218 218 219 219 218 217 216 213 210 207 203 202 202 203 206 207 208 206 202 197 192 192 195 194 195
52 100 325 349 148 256 303 299 153 159 270 54 98 215 270 280 278 284 304 196 173 207 229 227 231 232 231 232 226 232 236 226 226 228 226 224 223 222 223 223 219 217 218 217 218 217 217 218 216 215 215 216 216 216 217 217 218 218 219 218 218 219 218 217 218 219 220 222 223 222 219 219 219 219 218 218 216 215 217 216 212 209 205 204 206 208 211 212 211 208 205 202 196 192 193 192 194
3 102 201 260 158 254 305 310 218 163 205 9 91 213 269 281 264 285 330 71 152 220 244 245 237 235 231 227 227 230 238 236 232 233 231 229 227 226 226 227 224 221 221 220 219 217 217 217 216 216 217 217 217 217 217 217 218 218 219 220 221 221 221 220 220 220 221 221 222 223 222 220 221 220 218 218 217 215 216 218 215 210 207 206 208 211 214 217 216 211 205 204 204 197 193 192 190
303 40 178 232 172 179 272 276 314 43 128 263 63 210 251 265 272 292 316 39 136 235 249 251 242 243 241 232 235 233 234 237 232 230 230 229 229 229 229 230 228 225 223 223 221 220 219 217 216 217 218 219 219 217 216 217 217 218 220 221 223 224 225 225 224 223 222 222 222 223 223 222 222 221 219 219 218 217 218 218 218 214 210 208 209 211 213 216 218 215 207 203 206 203 197 193 191
193 193 168 240 209 185 235 238 264 39 72 246 215 242 258 268 281 289 291 292 220 245 248 250 248 244 247 245 242 240 239 241 237 232 230 228 228 229 230 230 230 227 225 224 223 221 220 219 218 218 218 219 219 217 216 216 217 218 220 221 223 225 227 227 226 226 225 224 224 223 223 223 224 223 222 221 219 218 217 217 217 216 213 211 210 210 209 211 212 213 209 204 204 205 203 198 192
170 176 147 158 185 226 240 247 259 156 125 257 232 235 259 272 281 279 279 265 215 250 261 259 259 252 250 251 248 246 243 245 244 239 235 231 229 229 229 229 229 228 227 224 222 221 220 219 218 218 219 218 216 214 213 214 216 217 219 220 222 224 226 226 227 228 227 227 227 226 225 224 225 225 224 225 222 219 218 217 217 216 215 212 210 208 207 209 210 210 210 207 203 199 200 199 193
136 125 108 140 164 236 256 262 284 163 146 257 242 247 261 263 269 267 273 282 249 250 254 254 255 252 249 247 248 248 243 249 254 249 242 235 232 230 229 228 227 226 225 223 221 221 220 219 218 218 218 216 214 212 212 213 213 214 216 218 221 222 223 225 226 227 228 229 229 228 227 226 226 225 224 223 223 222 222 220 218 217 215 211 210 210 211 213 213 212 210 207 204 197 194 195 192
95 120 111 84 155 221 256 251 288 346 147 266 324 311 271 256 263 268 266 268 257 241 238 246 247 246 249 247 249 249 249 260 263 254 245 237 234 231 228 226 224 223 224 222 221 222 220 218 218 220 218 215 214 214 213 214 214 215 216 218 221 222 222 223 224 225 227 229 230 229 228 227 226 226 225 224 223 225 226 222 218 216 214 212 210 211 213 214 213 211 205 200 201 200 196 192 188
83 110 120 112 212 250 294 299 311 1 108 273 344 332 281 266 258 262 257 247 251 242 230 239 245 248 249 245 247 251 258 264 258 253 248 239 236 231 226 224 222 225 226 223 221 221 219 217 219 220 219 217 217 217 216 217 218 218 219 221 222 222 224 224 224 225 227 229 231 231 230 229 228 228 227 227 226 226 227 224 220 217 215 213 211 211 211 210 208 206 203 200 197 198 198 194 191
88 107 128 191 251 167 276 297 315 357 52 283 336 317 284 286 279 268 262 250 256 257 241 240 242 242 246 248 249 247 250 256 259 257 249 242 240 232 224 222 222 223 223 222 220 219 218 218 220 220 220 220 219 218 219 219 219 219 220 223 224 225 227 227 227 228 229 229 230 230 231 231 229 229 228 227 227 227 225 224 223 222 221 218 214 212 210 209 208 205 204 202 196 191 192 194 196
15 132 140 175 207 171 199 281 331 358 11 20 9 331 293 312 331 290 288 286 271 284 287 266 251 243 250 262 260 247 244 250 256 259 253 241 237 232 225 223 222 220 220 222 221 220 220 220 221 221 222 223 222 221 220 220 219 219 220 222 224 226 227 227 227 228 228 227 228 228 230 231 230 229 228 227 227 228 229 227 226 226 227 226 221 217 215 213 211 209 206 205 201 197 194 195 198
312 223 173 173 166 157 174 4 41 37 350 342 30 10 293 310 322 280 299 331 301 308 318 281 271 262 248 251 256 251 252 253 252 259 262 246 235 233 229 224 220 219 221 223 223 223 222 222 222 222 222 223 224 224 223 221 221 220 220 219 219 221 223 224 225 226 227 227 228 228 229 231 231 229 228 227 226 227 229 230 230 229 227 224 220 218 217 215 214 212 208 206 206 204 199 195 198
278 240 176 152 129 128 140 76 62 81 257 301 57 103 267 300 293 265 293 326 308 312 310 283 282 282 261 253 263 262 256 254 255 260 262 250 235 227 225 222 219 222 224 224 222 223 223 223 223 222 223 225 225 226 225 224 223 222 222 222 222 222 224 228 229 230 231 232 232 232 231 231 230 229 229 228 228 227 228 229 230 231 231 226 220 216 214 215 217 214 211 210 209 206 203 199 201
235 236 135 126 123 136 145 107 98 212 242 322 18 114 242 292 265 264 306 324 314 314 302 288 286 291 289 281 274 265 252 245 245 254 256 249 233 222 223 223 221 224 226 223 221 222 223 224 225 225 226 226 227 227 226 225 225 224 224 225 226 227 229 233 234 233 235 236 236 235 234 232 231 230 230 231 231 230 230 231 231 231 231 230 225 221 222 223 222 217 215 215 212 208 207 207 205
242 205 128 130 131 135 123 98 95 13 17 316 314 122 191 276 271 297 338 319 302 296 285 288 297 305 306 300 285 274 271 257 238 243 256 258 244 232 232 231 228 226 225 224 223 224 224 225 226 227 227 228 228 228 228 228 228 227 227 226 228 231 233 236 238 238 238 238 239 238 237 236 234 233 232 233 234 233 233 233 233 233 233 232 229 227 228 227 223 220 218 216 213 210 210 211 210
193 135 97 76 74 79 78 90 98 41 22 254 255 198 189 268 285 310 341 289 268 273 278 286 297 309 321 328 319 304 307 310 284 264 274 278 265 248 240 238 235 230 226 227 227 226 226 227 227 228 229 230 230 230 230 230 229 229 229 228 230 233 234 236 238 240 239 238 239 239 238 238 238 237 236 235 236 237 236 235 235 236 238 239 236 231 228 224 220 218 218 217 213 212 212 214 215
126 95 64 46 32 35 43 58 81 64 299 253 243 226 173 272 281 255 220 225 219 253 309 315 322 335 344 345 337 325 326 336 334 323 324 320 295 263 244 239 240 235 229 229 229 229 229 230 230 231 233 232 232 232 231 232 231 230 231 231 232 234 235 236 236 237 238 237 238 239 239 240 240 240 239 239 238 238 238 237 236 236 238 239 237 233 228 225 224 223 224 222 216 215 217 217 217
94 83 75 63 355 9 20 1 41 117 257 262 256 225 150 221 260 251 245 257 235 194 287 319 332 335 331 321 307 307 311 314 323 326 336 347 342 306 241 235 240 239 235 233 232 232 232 233 234 235 235 234 234 234 233 233 233 232 234 234 234 236 235 236 236 237 237 236 238 239 240 240 241 241 241 240 239 238 237 238 238 238 240 240 237 234 229 226 225 224 224 220 216 216 219 219 217
76 91 94 90 341 6 354 311 334 222 247 268 273 218 188 229 250 254 258 265 240 193 226 283 312 311 311 302 289 293 297 296 303 311 320 327 326 315 291 260 255 249 244 243 240 237 236 237 237 238 239 237 236 235 234 234 234 234 235 235 236 237 237 237 238 239 239 239 240 240 240 240 240 241 241 241 240 239 238 239 239 239 240 241 240 237 233 229 225 223 221 219 219 222 224 222 222
130 138 132 131 131 129 259 271 282 261 261 280 283 261 261 274 269 247 251 261 231 191 232 252 235 243 271 284 293 299 297 300 303 303 306 298 289 292 290 285 276 260 253 251 247 244 243 243 242 242 243 242 238 237 236 235 236 237 237 237 238 238 238 239 240 241 241 242 242 242 243 243 243 244 244 245 245 243 242 242 242 241 241 244 245 241 236 231 229 227 226 226 226 226 225 223 226
176 156 137 149 159 162 207 219 215 246 276 296 292 260 211 206 295 247 240 263 264 219 250 263 246 247 266 296 305 302 299 312 318 302 289 273 268 273 275 273 267 261 256 253 250 247 246 247 246 246 246 245 241 239 238 238 239 239 239 239 240 239 240 241 242 244 244 244 245 246 247 247 247 248 248 249 249 248 249 249 247 244 243 244 246 246 241 233 228 227 228 233 232 228 226 227 229
225 128 109 170 188 147 139 192 179 178 287 295 259 237 216 202 280 278 250 269 283 272 295 320 317 308 337 333 307 304 310 311 306 294 285 277 272 268 268 269 266 265 262 258 253 250 250 252 251 250 251 249 245 243 242 242 242 241 241 241 241 241 242 243 244 245 245 246 247 248 249 250 250 251 251 252 252 251 252 252 251 249 247 244 243 244 243 237 230 225 227 230 230 229 232 234 232
179 143 179 219 178 118 112 240 38 81 249 270 215 248 290 328 297 298 328 299 287 333 4 353 320 309 331 316 294 308 320 314 308 296 285 287 286 277 269 266 265 263 262 260 258 255 256 259 258 256 255 252 248 246 245 245 243 243 243 243 243 243 243 244 245 246 247 247 248 249 250 251 252 253 253 253 253 254 254 254 253 252 250 246 243 242 243 244 241 237 236 236 235 236 236 234 231
129 185 211 201 94 83 106 197 352 36 250 274 248 239 279 316 279 309 12 335 290 342 36 33 349 333 318 298 301 316 319 316 310 296 288 293 292 289 284 278 274 269 267 266 265 264 263 263 262 260 259 256 253 251 249 247 245 245 246 245 245 245 246 247 248 249 249 249 249 249 249 250 251 252 253 253 254 254 253 253 253 253 251 248 245 244 243 244 243 242 240 240 242 242 239 235 232
131 189 179 116 129 186 109 156 196 176 243 279 289 268 254 207 225 279 319 285 281 350 78 95 61 42 3 341 335 332 335 329 316 310 305 295 287 289 294 295 292 284 277 274 272 270 267 265 263 262 262 261 259 256 253 250 248 247 248 249 249 249 249 250 250 251 251 250 250 250 249 250 251 251 252 252 252 252 252 252 251 252 251 248 248 249 248 245 243 241 239 239 241 240 237 235 233
73 109 115 93 142 167 164 160 162 176 206 260 299 312 268 224 207 209 230 250 251 140 125 142 124 9 319 349 339 324 323 305 295 297 287 286 297 303 304 307 309 303 292 286 279 273 269 267 265 262 262 261 259 257 254 252 251 250 250 251 251 251 251 252 252 252 252 252 253 252 251 251 251 251 251 250 251 251 251 251 250 250 249 246 245 249 252 249 245 243 243 244 244 241 237 235 233
148 162 171 172 110 116 164 172 125 142 167 204 278 294 267 249 204 183 205 234 223 153 149 179 224 295 287 297 295 278 267 265 274 278 284 300 309 311 318 322 316 306 298 293 286 281 277 273 269 265 264 262 261 259 256 254 253 252 253 252 253 253 253 253 253 253 253 254 254 254 253 254 253 251 250 248 249 249 250 250 249 249 249 246 245 248 252 251 246 243 243 242 242 239 237 235 233
165 181 195 184 157 125 146 234 257 124 166 179 194 275 267 237 199 191 185 185 180 159 154 180 226 252 266 272 260 252 265 294 303 284 273 271 282 306 329 330 316 300 292 291 288 286 282 280 278 273 270 269 268 264 260 259 257 255 255 255 255 255 255 255 255 255 254 255 255 254 254 254 254 253 250 249 248 248 249 250 248 249 248 246 247 249 252 252 248 243 241 240 239 237 236 235 233
Height
806 807 806 806 805 805 807 807 825 833 835 848 849 847 841 834 834 834 836 834 834 833 830 830 827 827 829 835 841 844 847 847 848 854 855 846 841 844 846 847 849 849 851 852 854 855 856 857 857 858 858 859 859 859 859 859 859 859 860 860 860 860 859 860 860 860 860 861 861 862 863 863 863 863 863 862 862 862 862 862 862 862 862 862 863 863 862 863 863 863 863 863 863 863 864 864 864
806 807 805 806 804 806 811 812 833 843 841 853 851 846 841 833 835 835 836 834 833 832 829 830 830 830 833 836 839 841 845 846 844 845 845 843 844 846 846 847 849 849 851 852 853 855 856 857 857 858 859 859 860 860 860 860 860 860 860 860 860 861 861 861 861 861 861 862 862 863 864 864 864 864 863 863 863 863 863 863 863 863 864 864 864 864 864 864 864 864 864 864 864 865 865 865 865
806 806 805 805 804 806 813 816 835 848 847 855 851 843 839 836 837 837 835 831 830 829 830 831 830 834 836 838 839 842 847 845 842 842 844 844 844 845 847 848 849 851 851 853 854 855 856 857 858 859 859 860 860 860 860 860 861 861 861 861 861 862 862 862 862 862 862 863 863 864 865 865 865 865 865 864 864 864 864 865 865 865 865 865 865 865 865 865 865 866 866 866 866 866 866 866 866
806 806 804 804 807 810 818 826 836 843 849 856 851 842 839 838 837 836 834 830 830 829 830 830 833 835 835 840 841 843 848 845 842 842 843 844 844 845 847 848 850 851 852 853 854 855 856 857 858 859 859 860 860 860 861 861 861 862 862 862 862 862 863 863 863 863 863 863 864 865 866 866 866 866 866 865 865 866 866 866 866 867 867 866 866 866 867 867 867 867 867 867 867 867 867 867 868
806 806 804 803 810 815 821 833 839 840 845 849 846 842 839 838 836 835 834 832 831 829 828 829 836 836 834 840 841 843 846 844 843 842 842 844 844 845 847 848 850 851 852 854 854 856 857 857 858 859 859 860 860 861 861 862 862 862 862 862 863 863 863 864 864 864 864 864 865 866 866 867 867 867 867 867 867 867 867 867 867 868 868 868 867 868 868 868 868 868 869 868 868 868 868 869 869
806 805 804 803 810 814 822 836 840 839 839 838 838 839 838 836 835 835 833 832 830 828 827 829 835 837 840 842 840 842 843 843 843 841 842 843 844 845 847 849 850 851 853 854 855 856 857 858 858 859 859 860 861 861 861 862 862 863 863 863 864 864 864 864 865 865 865 865 866 866 867 867 868 868 868 868 868 868 868 868 868 869 869 869 869 869 869 870 870 870 870 869 869 869 869 870 870
805 806 807 809 813 816 829 838 839 839 836 833 832 834 836 834 835 834 833 833 830 829 827 830 832 836 844 843 842 842 840 842 841 841 842 843 845 846 847 849 850 851 853 854 855 856 857 858 858 859 859 860 861 861 862 862 863 863 863 864 864 864 865 865 865 866 866 866 867 867 868 868 869 869 869 869 869 869 869 869 869 869 870 870 870 870 870 871 871 871 871 871 871 871 871 871 871
805 808 810 816 823 826 834 839 838 839 834 831 830 830 832 832 834 833 832 833 832 831 830 832 830 836 846 843 845 844 839 841 840 842 843 844 846 847 848 849 850 851 853 854 855 856 857 858 858 859 859 860 861 861 862 862 863 864 864 865 865 865 865 866 866 866 867 867 868 868 868 869 869 870 870 870 870 870 870 870 870 870 870 870 871 871 871 872 872 872 872 872 872 872 872 872 873
804 808 813 819 828 832 836 840 840 838 834 831 831 831 831 831 832 831 832 832 832 831 831 831 829 836 845 844 847 844 840 841 841 843 843 845 846 847 849 849 850 851 852 854 855 856 857 858 859 859 860 860 861 861 862 863 864 864 865 865 866 866 866 867 867 867 868 868 868 869 869 869 870 870 871 871 871 871 871 871 871 871 871 872 872 872 873 873 873 873 873 873 873 873 873 874 874
806 809 816 822 831 838 840 842 840 836 833 831 831 830 830 832 831 830 830 832 831 830 831 830 830 837 843 846 848 843 841 842 841 844 844 846 847 848 849 849 851 851 852 854 855 856 857 858 859 860 860 860 861 862 863 863 864 865 865 866 866 867 867 867 868 868 868 868 869 869 869 870 871 871 872 872 872 872 872 872 872 872 872 873 873 873 874 874 874 874 874 874 874 874 874 875 875
812 812 815 825 835 841 842 841 840 836 833 832 831 829 829 830 829 831 830 831 831 830 831 831 834 840 844 848 847 842 842 842 841 843 845 846 847 848 849 850 851 851 852 853 855 856 856 858 858 859 860 861 861 862 863 864 864 865 866 866 867 867 868 868 868 868 869 869 869 870 870 871 872 872 872 872 873 873 873 873 873 873 873 873 874 874 875 875 875 875 875 875 875 875 875 876 876
815 818 817 828 834 836 839 840 840 838 835 833 832 828 828 829 829 831 831 831 831 831 830 829 833 837 844 849 846 842 842 842 842 843 845 846 847 848 849 850 852 852 853 854 855 856 857 857 858 859 860 861 861 862 863 864 865 865 866 867 867 868 868 869 869 869 869 870 870 870 871 871 872 873 873 873 874 874 874 874 874 874 874 874 875 875 876 876 876 876 876 876 876 876 876 877 877
815 820 820 828 835 835 838 841 841 841 838 834 830 827 826 827 827 829 830 831 831 832 830 827 829 832 844 850 845 844 842 842 842 843 846 846 847 848 849 851 851 853 853 854 854 855 856 857 858 859 860 861 861 862 863 864 864 865 866 867 867 868 868 869 869 870 870 870 870 871 871 872 872 873 874 874 875 875 875 875 875 875 875 875 876 876 877 877 877 877 877 877 877 877 877 878 878
812 817 818 830 839 836 837 841 842 843 839 832 828 826 825 826 826 828 829 832 833 830 827 825 826 831 843 849 847 846 841 841 843 843 846 846 847 848 849 850 851 852 853 854 854 855 856 857 858 859 860 860 861 862 863 864 864 865 866 866 867 867 868 869 869 870 870 870 871 871 872 872 872 873 874 875 875 876 876 876 876 876 876 877 877 877 878 878 878 878 878 878 878 878 879 879 879
810 815 818 828 836 836 836 838 839 840 836 830 827 825 825 826 826 828 827 829 831 827 825 825 825 829 837 842 842 840 838 839 842 843 845 846 847 848 849 850 851 852 852 853 854 855 856 857 857 858 859 860 861 862 863 863 864 865 865 866 866 867 868 868 869 870 870 870 871 871 871 872 872 873 873 874 875 876 876 876 877 877 877 878 878 878 879 879 879 879 879 879 880 880 880 880 880
809 814 820 827 834 838 835 835 839 838 833 829 827 824 826 827 826 827 825 825 828 826 826 828 827 828 831 831 829 830 834 838 841 843 845 846 847 848 849 850 851 852 852 853 853 854 855 856 857 858 859 859 861 861 862 863 864 865 865 866 866 866 867 868 869 869 870 870 871 871 871 872 872 872 873 873 874 875 875 875 876 876 876 877 878 878 879 879 880 880 881 881 881 881 881 881 882
809 814 823 830 836 836 830 832 836 831 828 828 827 825 828 830 826 825 824 823 827 829 830 831 830 828 828 827 824 826 833 837 840 842 844 845 846 847 849 849 850 851 852 852 853 854 854 855 856 857 858 859 860 861 862 863 864 865 865 866 866 867 867 868 869 869 870 870 871 871 871 872 872 872 873 873 874 874 874 874 874 875 875 876 876 877 878 879 880 880 881 881 882 882 883 883 883
811 821 827 832 836 831 825 827 827 824 825 826 826 825 827 830 828 825 825 827 830 831 832 833 831 830 829 827 826 828 833 836 839 841 842 844 845 846 847 847 848 849 850 851 852 853 853 854 855 856 857 858 860 861 862 862 863 864 865 866 866 867 867 868 869 869 870 870 871 871 872 872 872 873 873 873 874 874 874 875 875 875 875 875 876 876 877 878 878 879 880 881 882 882 883 883 884
815 825 829 831 832 827 823 823 822 823 822 823 825 826 826 827 827 825 828 832 832 832 835 836 834 832 832 829 829 831 833 835 837 839 840 841 842 843 844 846 847 847 848 849 850 851 852 853 854 855 856 858 859 860 861 862 863 864 864 865 866 867 867 868 869 869 870 870 871 871 872 872 873 873 873 874 874 875 875 876 876 876 876 876 877 877 878 878 878 879 879 880 881 881 882 882 883
817 824 828 828 826 823 823 822 821 821 820 822 825 826 826 826 826 825 829 833 833 831 833 835 834 835 834 832 832 832 834 835 836 838 839 839 840 841 842 843 844 844 845 847 848 850 851 852 853 855 856 857 858 859 860 861 862 863 864 864 865 866 867 868 868 869 870 871 871 872 872 872 873 874 874 875 875 875 876 876 877 877 877 878 878 878 879 879 880 880 880 881 881 881 882 882 882
817 821 825 824 823 823 821 820 820 821 820 821 823 826 826 825 826 826 828 833 834 830 827 826 827 831 834 834 833 833 834 835 836 837 838 839 839 840 840 840 841 842 844 846 847 848 849 851 852 853 855 856 857 858 859 860 861 861 863 863 864 865 866 867 868 869 870 870 871 872 872 873 873 874 874 875 875 876 876 877 877 877 878 878 879 879 879 880 881 881 882 882 882 882 882 883 883
818 823 823 822 822 822 820 819 820 821 821 822 824 825 824 824 825 826 827 830 829 824 821 819 821 825 828 829 831 833 834 834 836 836 837 837 838 839 839 840 841 842 843 844 845 846 848 849 850 852 853 854 855 856 857 859 860 860 861 862 863 864 865 866 867 868 869 870 870 871 872 872 873 873 874 875 876 876 876 877 877 878 878 878 879 879 880 881 881 882 883 883 883 883 883 884 884
819 825 823 822 822 820 820 820 821 821 821 822 823 822 823 825 825 826 826 824 820 816 815 817 819 822 823 826 829 831 832 833 833 833 833 835 835 836 837 838 840 840 841 842 843 845 846 848 849 850 851 853 854 855 856 857 858 859 860 861 861 862 863 864 865 866 868 869 869 870 871 871 872 873 873 874 875 876 876 877 877 877 878 878 879 879 880 881 882 882 883 884 884 884 884 884 885
818 824 822 822 822 820 821 821 821 821 820 822 822 821 823 824 825 826 825 820 816 815 815 816 818 821 824 826 828 828 829 829 829 829 830 831 831 832 834 836 837 839 840 841 842 843 844 846 847 849 849 850 852 853 854 855 856 857 858 859 860 861 862 863 863 865 866 867 868 868 869 870 871 872 872 873 874 875 875 876 876 877 878 878 879 879 880 880 881 882 883 883 884 884 884 885 885
818 822 822 822 822 821 822 822 821 821 820 822 822 822 823 824 825 825 822 817 815 815 816 816 818 822 825 826 827 828 828 828 828 829 830 830 830 833 834 835 837 838 838 838 840 841 842 844 845 846 847 848 850 851 852 853 855 856 856 857 858 859 860 861 862 864 865 865 867 867 868 869 870 870 871 872 873 874 875 875 876 877 877 878 878 879 879 880 881 881 882 883 883 884 884 885 885
818 820 822 822 822 822 823 822 821 822 822 822 823 824 824 824 825 823 816 814 815 816 817 818 820 823 824 825 825 826 827 827 827 828 828 829 831 833 833 834 835 835 835 837 838 838 840 842 843 844 845 846 848 849 850 851 853 854 854 855 856 858 859 860 861 863 863 864 865 866 867 868 868 869 870 871 872 873 873 875 875 876 877 877 878 878 879 879 880 881 881 882 883 883 884 885 885
817 820 823 823 825 824 824 823 823 823 823 823 824 825 825 824 827 822 813 812 815 816 819 820 819 821 822 823 823 824 825 824 824 825 827 829 831 830 830 832 832 832 833 834 834 836 838 839 840 841 843 845 846 847 848 849 850 851 852 854 855 856 857 859 860 861 862 863 864 865 866 867 868 869 870 870 871 872 872 873 874 875 876 877 877 878 878 879 880 880 881 882 882 883 884 885 885
817 819 823 826 826 825 825 824 824 824 824 824 824 826 826 826 826 819 812 814 815 815 818 820 819 820 821 821 822 823 822 822 823 825 826 825 824 825 826 826 826 828 830 830 831 833 835 836 837 839 841 842 844 845 846 847 848 849 851 852 853 854 856 858 859 860 861 861 862 864 865 866 867 868 869 870 870 871 872 872 873 874 875 876 876 877 878 879 879 880 881 881 882 883 883 884 885
818 818 823 828 827 826 826 825 825 825 826 825 825 829 830 827 822 814 813 816 815 816 817 819 819 819 820 820 821 822 821 821 823 823 821 819 819 820 820 820 822 824 824 826 829 831 832 833 835 837 839 840 841 842 843 845 846 847 848 850 851 853 854 856 856 858 859 860 861 862 863 864 865 867 867 868 869 870 871 871 872 873 874 875 876 877 877 878 879 879 880 881 882 882 883 884 885
819 821 824 830 831 829 828 827 826 826 827 825 828 835 830 822 819 814 816 817 816 818 817 818 818 818 819 820 820 820 819 820 820 818 816 816 816 817 816 817 819 820 821 824 826 827 828 831 833 835 836 837 839 840 841 842 844 845 846 847 849 851 852 853 854 856 857 858 859 860 861 862 863 864 866 867 868 869 870 870 871 872 873 874 875 876 876 877 877 878 879 880 881 881 882 883 884
823 826 830 837 838 832 828 827 827 827 828 825 828 837 829 818 817 815 816 817 816 816 816 818 818 818 819 818 819 818 817 816 815 813 813 814 814 815 814 815 817 818 819 821 821 823 825 828 830 832 833 835 836 837 838 839 841 842 844 845 847 848 850 851 852 853 855 856 857 858 858 859 860 862 863 864 866 867 868 869 870 871 872 873 874 875 875 876 876 877 878 878 880 880 881 882 883
828 831 837 845 841 833 829 827 827 827 827 826 829 837 830 819 816 815 816 816 816 815 815 817 817 817 817 817 817 815 814 813 812 812 811 811 812 812 812 812 814 815 816 817 818 821 823 825 827 829 830 832 833 834 836 837 839 840 842 843 845 846 847 848 850 851 852 854 855 856 856 857 858 859 861 862 863 864 865 867 868 869 870 871 872 873 874 875 875 876 877 877 878 879 880 881 882
833 834 837 843 841 838 833 828 828 827 827 828 830 834 829 821 816 815 816 816 816 816 815 816 816 815 815 814 814 812 811 810 810 809 808 808 808 808 809 809 811 812 813 814 816 818 820 821 824 825 827 828 830 832 833 835 837 839 840 842 843 844 845 846 847 848 850 851 852 853 854 855 856 857 859 860 861 861 862 864 866 867 868 868 869 871 872 873 874 875 876 876 877 877 878 879 880
837 838 837 840 841 839 834 830 830 829 829 830 831 834 827 819 816 814 815 816 817 816 814 814 814 813 812 812 811 810 809 807 805 803 802 803 804 805 806 807 808 810 811 812 814 815 816 819 820 822 824 826 828 829 831 833 835 837 839 840 841 842 843 843 845 846 847 848 849 850 852 853 854 855 856 857 858 859 860 861 863 865 865 866 867 868 869 871 872 873 874 875 876 876 877 877 878
834 836 835 838 840 838 835 832 831 830 830 832 834 836 828 820 819 816 815 817 818 815 813 812 811 811 810 810 809 807 806 803 799 797 797 799 800 802 803 804 806 808 809 810 812 814 815 817 818 820 822 823 826 828 830 832 834 836 837 838 840 840 840 841 842 842 843 845 846 848 849 851 852 853 854 855 856 857 858 859 860 861 863 864 865 866 867 868 869 871 872 873 875 876 876 876 877
826 830 831 833 834 836 836 833 832 832 832 832 833 833 829 823 820 816 813 816 818 815 813 812 810 809 808 808 806 805 804 799 794 794 795 796 797 798 800 802 804 805 807 808 810 812 813 815 816 817 819 821 824 826 828 830 832 833 835 836 836 835 836 838 838 839 840 841 843 845 846 848 849 850 851 852 853 854 855 856 857 858 859 861 861 863 864 865 867 868 870 871 872 874 876 876 876
826 829 832 834 834 833 835 833 832 833 832 831 832 832 830 824 818 814 813 816 817 814 812 810 808 807 805 805 803 801 800 794 791 793 794 794 796 796 798 800 802 804 805 807 808 809 810 812 813 814 816 819 821 823 824 826 827 828 830 830 829 831 833 834 835 836 837 838 840 842 844 845 847 848 849 850 850 852 853 853 854 855 856 857 858 859 860 862 864 865 867 868 869 871 873 874 875
826 828 831 835 837 834 834 834 831 833 832 830 834 832 825 822 817 813 813 815 812 808 808 805 803 803 802 801 800 797 795 792 791 792 792 793 793 794 796 798 799 800 801 803 804 805 807 809 810 812 814 816 818 819 821 821 822 823 824 825 826 828 830 831 832 833 835 837 838 840 841 843 844 845 847 847 848 849 850 851 851 851 852 854 855 856 857 858 860 861 863 865 867 868 869 871 872
826 829 830 833 838 837 836 834 831 833 832 829 834 832 821 818 817 811 809 809 805 803 803 801 799 799 799 797 796 795 793 791 790 790 790 790 790 792 794 795 796 796 797 799 800 802 805 806 808 810 812 813 815 816 818 818 820 822 823 824 825 827 828 829 831 832 834 835 836 837 838 839 841 842 843 845 846 846 847 848 848 848 849 850 852 854 854 855 857 858 858 859 862 866 867 868 868
827 829 830 833 840 839 834 833 833 835 836 834 834 831 820 813 812 805 804 807 804 802 801 799 798 796 793 792 792 792 790 788 787 787 788 788 788 790 791 791 792 793 795 796 798 800 802 803 805 807 809 810 812 814 815 817 819 821 823 824 825 826 827 828 830 831 831 832 832 833 834 835 837 838 840 841 843 844 844 845 846 846 847 847 849 850 850 850 851 854 856 856 857 860 864 865 866
832 830 829 831 834 835 835 835 835 836 839 838 833 828 817 810 810 801 799 805 801 800 800 795 795 794 792 791 789 788 787 786 786 785 786 787 787 787 787 787 789 790 792 792 794 796 797 800 801 804 806 808 810 812 814 816 818 820 822 823 825 825 826 827 827 826 826 827 828 828 829 831 833 834 836 837 838 840 841 842 843 844 844 845 845 846 846 846 847 848 851 853 852 853 857 860 863
833 830 828 828 827 830 835 834 834 836 840 841 839 835 822 811 810 803 798 800 796 797 797 790 788 789 789 789 786 785 786 785 786 784 784 785 784 784 784 785 787 787 788 789 791 793 795 797 799 802 804 806 808 810 812 815 816 817 819 820 821 821 822 821 820 820 821 823 824 825 827 829 830 831 833 834 835 836 837 839 840 840 840 840 840 841 842 843 843 844 846 848 848 849 852 855 857
833 831 833 832 827 829 833 832 835 840 843 845 845 844 834 817 809 806 804 802 796 793 792 786 784 784 784 786 784 784 785 784 785 784 783 783 782 782 782 782 783 783 784 787 790 792 794 796 798 800 802 803 806 808 810 812 813 815 815 816 817 817 817 816 816 818 820 821 822 824 825 826 828 829 830 831 832 833 834 835 836 837 837 837 837 837 838 838 840 841 843 844 844 846 848 849 851
832 833 835 833 828 830 833 833 837 844 845 846 846 845 845 831 813 811 810 804 797 792 789 784 782 783 784 785 785 783 783 783 784 782 781 781 780 780 780 779 781 782 784 787 789 790 792 794 796 798 800 802 804 806 807 809 810 812 813 814 814 814 813 813 815 818 819 820 821 821 822 823 824 826 826 828 829 830 832 832 833 834 834 834 834 834 834 835 838 840 841 841 842 843 842 842 845
832 836 837 835 832 834 836 836 841 850 849 845 845 846 849 836 815 813 813 805 800 794 788 784 783 786 786 784 785 783 783 783 783 782 781 780 779 779 779 779 780 782 784 786 787 789 791 793 795 797 798 800 801 803 805 806 808 809 810 811 811 811 811 812 814 816 817 818 818 818 819 820 821 822 823 824 825 826 828 829 830 830 830 831 831 830 831 832 833 835 836 837 839 839 839 839 842
833 838 838 837 839 840 841 842 842 850 851 844 842 844 846 833 811 809 811 803 799 793 788 787 786 788 787 785 784 782 783 784 783 783 782 780 780 779 779 780 781 782 784 786 787 789 791 793 794 795 796 798 799 801 802 804 805 806 807 807 807 808 809 810 812 812 814 814 814 815 816 816 817 819 820 821 822 822 824 825 826 826 827 828 827 827 827 828 828 829 830 832 834 835 836 837 838
832 833 833 835 840 841 844 849 846 849 850 844 846 847 847 839 815 805 805 799 796 794 790 789 786 787 787 786 785 783 783 784 783 783 782 781 781 780 780 781 782 783 784 786 787 788 790 791 793 793 794 796 797 799 800 801 803 803 803 804 804 805 806 808 808 808 810 811 810 811 812 813 814 815 816 817 818 819 820 821 822 823 823 824 824 823 822 823 824 826 827 829 831 831 832 833 834
831 829 832 836 843 846 848 853 852 853 849 845 855 858 852 844 820 802 801 799 799 799 793 790 787 787 788 786 785 785 785 784 784 783 782 782 782 781 782 782 783 784 785 787 788 789 790 791 792 792 793 794 795 797 798 798 800 800 800 800 801 802 803 804 804 804 805 806 806 808 809 810 811 811 812 813 813 815 817 817 818 819 820 820 820 819 819 819 820 821 822 823 825 826 828 830 831
832 832 837 843 852 856 853 857 860 858 851 849 857 856 846 837 816 801 798 793 797 800 794 791 790 788 788 786 785 786 786 785 785 785 785 785 784 784 784 784 784 786 786 788 789 789 790 791 791 791 791 793 794 794 795 796 796 796 797 798 798 799 801 801 801 801 802 803 804 805 806 807 807 808 808 808 809 811 813 814 815 816 817 818 818 818 817 817 817 818 819 820 821 821 823 825 827
833 832 836 842 855 862 858 864 868 859 851 853 859 853 839 824 807 799 796 790 793 798 793 792 792 789 788 786 786 786 785 785 786 787 787 786 786 785 785 786 786 786 787 787 788 789 790 790 790 790 790 792 792 793 793 793 793 793 795 795 796 797 797 797 798 798 799 801 801 802 803 803 803 803 803 804 806 808 809 810 812 813 814 815 815 815 815 815 815 815 816 818 819 817 817 820 822
834 833 836 836 841 848 850 853 852 848 849 855 858 846 826 810 800 797 797 793 795 797 793 793 791 790 791 789 788 785 784 786 787 787 787 787 786 786 786 786 785 786 786 787 787 788 788 789 789 789 789 790 791 791 791 791 791 792 793 794 794 794 795 795 795 796 797 798 798 799 799 799 799 799 801 802 803 805 806 806 807 808 809 810 811 812 812 812 812 811 811 814 815 815 816 816 817
839 840 839 835 831 833 845 854 852 852 854 853 850 837 818 808 798 793 795 792 793 795 793 792 792 792 792 789 786 785 785 787 787 786 787 786 786 786 786 786 785 786 786 786 786 787 787 787 788 787 788 788 789 789 790 790 790 791 791 791 792 792 793 793 792 793 794 794 795 795 795 795 796 796 798 799 800 801 802 802 803 803 804 805 806 807 808 809 809 808 808 810 810 811 812 812 813
837 840 835 836 834 829 840 858 864 861 853 845 842 830 816 812 799 789 792 790 787 792 793 792 792 791 790 788 785 786 786 786 787 787 787 786 786 785 785 784 785 785 785 785 785 786 786 786 786 786 786 787 787 788 788 788 789 789 789 789 790 790 790 790 789 790 790 791 792 791 791 792 792 793 794 795 797 798 799 799 799 800 801 801 802 803 804 805 805 805 805 806 807 807 808 808 808
831 835 830 834 839 834 834 846 856 861 856 843 839 831 819 817 808 793 793 791 786 791 793 792 792 791 790 788 786 786 787 787 788 788 788 787 785 785 784 783 783 783 783 783 784 785 785 785 785 785 785 785 785 786 786 786 787 787 787 787 788 788 788 787 787 788 788 789 788 788 788 788 788 789 791 792 793 794 795 796 797 797 798 799 800 800 801 802 802 802 802 802 803 804 805 804 805
826 827 826 830 835 837 840 844 846 855 857 843 835 834 824 817 809 796 790 787 784 790 793 790 791 792 790 788 787 788 788 788 788 787 787 787 785 785 784 783 782 782 782 782 782 783 782 782 783 782 782 782 783 784 783 784 784 784 785 785 786 786 786 786 786 787 787 786 785 785 785 784 785 786 787 788 789 790 791 792 793 794 795 796 797 798 799 799 800 799 799 799 800 801 801 801 801
827 827 828 830 831 832 837 841 840 843 850 844 834 828 816 807 803 792 786 783 781 789 795 792 792 791 790 789 789 790 790 789 789 789 789 787 785 785 784 782 781 781 781 780 780 781 780 780 781 780 780 780 780 780 780 780 781 782 782 782 783 783 783 783 784 784 785 783 783 783 782 782 783 783 784 784 785 786 787 788 790 791 792 792 793 795 795 796 797 796 796 796 797 798 798 798 798
825 826 829 831 833 836 835 839 840 837 839 844 840 826 808 800 796 784 781 783 783 789 792 791 791 791 790 791 790 790 791 791 791 790 789 787 786 785 783 782 781 780 780 779 778 779 778 778 779 778 778 778 777 777 777 777 778 779 779 779 779 780 780 781 781 781 781 780 780 780 780 781 782 781 781 781 781 782 783 784 786 787 788 789 790 791 792 792 793 793 793 793 794 795 795 795 796
816 819 823 823 826 833 836 840 843 839 835 837 839 829 804 791 789 782 781 785 785 788 789 790 792 791 791 791 790 790 790 790 791 790 789 788 786 784 782 780 780 780 779 779 778 778 778 777 777 777 777 776 774 774 775 775 776 776 776 775 776 777 777 778 778 778 777 776 777 778 779 780 780 779 779 779 778 778 779 781 782 783 785 786 787 787 788 788 788 788 789 790 790 791 792 792 793